Home > Weather > Taunton > Past weeks

Flag for United Kingdom Past Weather in Taunton, England, United Kingdom — Yesterday and Last 2 Weeks

Now
57 °F

Cool.


Feels Like: 56 °F
Forecast: 55 / 67 °F
Wind: 7 mph from West

Location: Dunkeswell Aerodrome

Current Time: Jul 25, 2016 at 9:10:36 AM

Latest Report: Jul 25, 2016 at 8:00 AM


Visibility: 9 mi

Pressure: 30.14 "Hg

Humidity: 92%

Dew Point: 55 °F

Location of TauntonLocation

Past Weather in Taunton — Graph

°F

Taunton Temperature Yesterday

Maximum temperature yesterday: 65 °F (at 6:00 PM)
Minimum temperature yesterday: 56 °F (at 11:00 PM)
Average temperature yesterday: 61 °F

High & Low Weather Summary for the Past Weeks

 TemperatureHumidityPressure
High80 °F (Jul 19, 4:00 PM)100% (Jul 10, 8:00 AM)30.38 "Hg (Jul 10, 8:00 AM)
Low48 °F (Jul 13, 5:00 AM)51% (Jul 13, 4:00 PM)29.72 "Hg (Jul 20, 5:00 AM)
Average61 °F82%30.09 "Hg
* Reported Jul 10 7:00 AM — Jul 25 7:00 AM, Taunton, Weather by CustomWeather, © 2016

Note: Actual official high and low records may vary slightly from our data, if they occured in-between our weather recording intervals... More about our weather records

Advertising

Taunton Weather History for the Previous 24 Hours

Scroll right to see more
 ConditionsComfort  
Time TempWeatherWind HumidityBarometerVisibility
7:00 AM
Mon, Jul 25
55 °FFog.6 mph98%30.13 "Hg6 mi
6:00 AM55 °FCool.6 mph98%30.12 "Hg6 mi
5:00 AM55 °FCool.7 mph97%30.12 "Hg7 mi
4:00 AM55 °FCool.7 mph96%30.12 "Hg8 mi
3:00 AM56 °FCool.8 mph95%30.12 "Hg8 mi
2:00 AM56 °FCool.5 mph95%30.12 "Hg9 mi
1:00 AM57 °FCool.8 mph95%30.12 "Hg9 mi
12:00 AM56 °FCool.6 mph95%30.12 "Hg10 mi
11:00 PM
Sun, Jul 24
56 °FCool.6 mph92%30.11 "Hg14 mi
10:00 PM58 °FCool.7 mph86%30.11 "Hg22 mi
9:00 PM60 °FCool.7 mph89%30.09 "Hg22 mi
8:00 PM62 °FDrizzle. Cloudy.7 mph93%30.08 "Hg19 mi
7:00 PM64 °FMild.8 mph94%30.06 "Hg14 mi
6:00 PM65 °FMild.7 mph89%30.06 "Hg31 mi
5:00 PM64 °FRain. Cloudy.9 mph96%30.06 "Hg2 mi
4:00 PM64 °FDrizzle. Cloudy.10 mph98%30.06 "Hg2 mi
3:00 PM63 °FDrizzle. Cloudy.12 mph98%30.07 "Hg1 mi
2:00 PM62 °FCool.13 mph95%30.09 "Hg6 mi
1:00 PM62 °FLight rain. Cloudy.12 mph92%30.10 "Hg3 mi
12:00 PM63 °FRain showers. Cloudy.10 mph81%30.10 "Hg14 mi
11:00 AM64 °FMild.9 mph83%30.10 "Hg12 mi
10:00 AM62 °FCool.7 mph84%30.11 "Hg17 mi
9:00 AM60 °FCool.3 mph91%30.11 "Hg19 mi
Weather by CustomWeather, © 2016

See weather overviewHow to use our weather pages